,,,PA_Meas_PMT16A,,PR_Meas_QMR101_102,,RH_Meas_QMH101,,SR_Meas_QMS101,,TA_Meas_QMH101,,GenWind,,GenWind,
date,time,status,PA,status,PR,status,RH,status,SR,status,TA,status,DirAvg,status,SpdAvg,
2014-06-22, 00:00:04,VALID,1012.2,VALID,0,VALID,104,VALID,0,VALID,25.5261,VALID,173,VALID,0,
2014-06-22, 00:01:04,VALID,1012.18,VALID,0,VALID,104,VALID,0,VALID,25.5261,VALID,173,VALID,0.0488281,
2014-06-22, 00:02:04,VALID,1012.19,VALID,0,VALID,104,VALID,0,VALID,25.4871,VALID,173,VALID,0.377734,
2014-06-22, 00:03:04,VALID,1012.22,VALID,0,VALID,104,VALID,0,VALID,25.4871,VALID,173,VALID,0.3875,
2014-06-22, 00:04:04,VALID,1012.17,VALID,0,VALID,104,VALID,0,VALID,25.4677,VALID,173,VALID,0,
2014-06-22, 00:05:04,VALID,1012.18,VALID,0,VALID,104,VALID,0,VALID,25.4677,VALID,173,VALID,0,
2014-06-22, 00:06:04,VALID,1012.17,VALID,0,VALID,104,VALID,0,VALID,25.4677,VALID,173,VALID,0,
2014-06-22, 00:07:04,VALID,1012.2,VALID,0,VALID,104,VALID,0,VALID,25.4482,VALID,173,VALID,0,
2014-06-22, 00:08:04,VALID,1012.19,VALID,0,VALID,104,VALID,0,VALID,25.4696,VALID,173,VALID,0.0113281,
2014-06-22, 00:09:04,VALID,1012.15,VALID,0,VALID,104,VALID,0,VALID,25.4696,VALID,173,VALID,0.184375,
2014-06-22, 00:10:04,VALID,1012.17,VALID,0,VALID,104,VALID,0,VALID,25.4677,VALID,173,VALID,0,
2014-06-22, 00:11:04,VALID,1012.16,VALID,0,VALID,104,VALID,0,VALID,25.4677,VALID,173,VALID,0.0863281,
2014-06-22, 00:12:04,VALID,1012.14,VALID,0,VALID,104,VALID,0,VALID,25.4871,VALID,173,VALID,0,
2014-06-22, 00:13:04,VALID,1012.14,VALID,0,VALID,104,VALID,0,VALID,25.4871,VALID,173,VALID,0,
2014-06-22, 00:14:04,VALID,1012.13,VALID,0,VALID,104,VALID,0,VALID,25.5086,VALID,173,VALID,0,
2014-06-22, 00:15:04,VALID,1012.12,VALID,0,VALID,104,VALID,0,VALID,25.4871,VALID,173,VALID,0,
2014-06-22, 00:16:04,VALID,1012.12,VALID,0,VALID,104,VALID,0,VALID,25.4871,VALID,173,VALID,0,
2014-06-22, 00:17:04,VALID,1012.12,VALID,0,VALID,104,VALID,0,VALID,25.5066,VALID,173,VALID,0.242578,
2014-06-22, 00:18:04,VALID,1012.1,VALID,0,VALID,104,VALID,0,VALID,25.4871,VALID,173,VALID,0,
2014-06-22, 00:19:04,VALID,1012.1,VALID,0,VALID,104,VALID,0,VALID,25.4871,VALID,173,VALID,0,
2014-06-22, 00:20:04,VALID,1012.11,VALID,0,VALID,104,VALID,0,VALID,25.4871,VALID,173,VALID,0,
2014-06-22, 00:21:04,VALID,1012.12,VALID,0,VALID,104,VALID,0,VALID,25.5086,VALID,173,VALID,0,
2014-06-22, 00:22:04,VALID,1012.08,VALID,0,VALID,104,VALID,0,VALID,25.4677,VALID,173,VALID,0.232422,
2014-06-22, 00:23:04,VALID,1012.07,VALID,0,VALID,104,VALID,0,VALID,25.4482,VALID,173,VALID,0,
2014-06-22, 00:24:04,VALID,1012.1,VALID,0,VALID,104,VALID,0,VALID,25.4482,VALID,173,VALID,0,
2014-06-22, 00:25:04,VALID,1012.06,VALID,0,VALID,104,VALID,0.112112,VALID,25.4657,VALID,173,VALID,0.235938,
2014-06-22, 00:26:04,VALID,1012.05,VALID,0,VALID,104,VALID,0.112112,VALID,25.4657,VALID,173,VALID,0.101172,
2014-06-22, 00:27:04,VALID,1012.04,VALID,0,VALID,104,VALID,0.224224,VALID,25.4462,VALID,173,VALID,0.162891,
2014-06-22, 00:28:04,VALID,1012.07,VALID,0,VALID,104,VALID,0,VALID,25.4462,VALID,173,VALID,0,
2014-06-22, 00:29:04,VALID,1012.01,VALID,0,VALID,104,VALID,0.112112,VALID,25.4462,VALID,173,VALID,0.0773437,
2014-06-22, 00:30:04,VALID,1011.98,VALID,0,VALID,104,VALID,0.112112,VALID,25.4462,VALID,173,VALID,0,
2014-06-22, 00:31:04,VALID,1011.96,VALID,0,VALID,104,VALID,0.112112,VALID,25.4267,VALID,173,VALID,0,
2014-06-22, 00:32:04,VALID,1011.94,VALID,0,VALID,104,VALID,0.112112,VALID,25.4267,VALID,173,VALID,0,
2014-06-22, 00:33:04,VALID,1011.93,VALID,0,VALID,104,VALID,0.112112,VALID,25.4072,VALID,173,VALID,0,
2014-06-22, 00:34:04,VALID,1011.9,VALID,0,VALID,104,VALID,0.112112,VALID,25.3877,VALID,173,VALID,0,
2014-06-22, 00:35:04,VALID,1011.91,VALID,0,VALID,104,VALID,0.112112,VALID,25.3877,VALID,173,VALID,0,
2014-06-22, 00:36:04,VALID,1011.9,VALID,0,VALID,104,VALID,0.112112,VALID,25.3683,VALID,173,VALID,0,
2014-06-22, 00:37:04,VALID,1011.85,VALID,0,VALID,104,VALID,0.112112,VALID,25.3683,VALID,173,VALID,0,
2014-06-22, 00:38:04,VALID,1011.85,VALID,0,VALID,104,VALID,0.112112,VALID,25.3683,VALID,173,VALID,0,
2014-06-22, 00:39:04,VALID,1011.85,VALID,0,VALID,104,VALID,0.112112,VALID,25.3877,VALID,173,VALID,0,
2014-06-22, 00:40:04,VALID,1011.88,VALID,0,VALID,104,VALID,0,VALID,25.3897,VALID,173,VALID,0,
2014-06-22, 00:41:04,VALID,1011.85,VALID,0,INVALID,109.048,VALID,0,VALID,25.3897,VALID,173,VALID,0,
2014-06-22, 00:42:04,VALID,1011.85,VALID,0,INVALID,109.132,VALID,0,VALID,25.3897,VALID,173,VALID,0,
2014-06-22, 00:43:04,VALID,1011.81,VALID,0,INVALID,109.178,VALID,0,VALID,25.3897,VALID,173,VALID,0,
2014-06-22, 00:44:04,VALID,1011.79,VALID,0,INVALID,109.224,VALID,0,VALID,25.3897,VALID,173,VALID,0,
2014-06-22, 00:45:04,VALID,1011.81,VALID,0,INVALID,109.269,VALID,0,VALID,25.3897,VALID,173,VALID,0,
2014-06-22, 00:46:04,VALID,1011.79,VALID,0,INVALID,109.353,VALID,0,VALID,25.3897,VALID,173,VALID,0,
2014-06-22, 00:47:04,VALID,1011.75,VALID,0,INVALID,109.437,VALID,0,VALID,25.3897,VALID,173,VALID,0,
2014-06-22, 00:48:04,VALID,1011.75,VALID,0,INVALID,109.43,VALID,0,VALID,25.3897,VALID,173,VALID,0,
2014-06-22, 00:49:04,VALID,1011.76,VALID,0,INVALID,109.468,VALID,0,VALID,25.3897,VALID,173,VALID,0,
2014-06-22, 00:50:04,VALID,1011.74,VALID,0,INVALID,109.46,VALID,0,VALID,25.3897,VALID,173,VALID,0,
2014-06-22, 00:51:04,VALID,1011.74,VALID,0,INVALID,109.498,VALID,0,VALID,25.3897,VALID,173,VALID,0,
2014-06-22, 00:52:04,VALID,1011.71,VALID,0,INVALID,109.536,VALID,0,VALID,25.3897,VALID,173,VALID,0,
2014-06-22, 00:53:04,VALID,1011.72,VALID,0,INVALID,109.552,VALID,0,VALID,25.3702,VALID,173,VALID,0,
2014-06-22, 00:54:04,VALID,1011.69,VALID,0,INVALID,109.582,VALID,0,VALID,25.3897,VALID,173,VALID,0,
2014-06-22, 00:55:04,VALID,1011.71,VALID,0,INVALID,109.628,VALID,0,VALID,25.3897,VALID,173,VALID,0,
2014-06-22, 00:56:04,VALID,1011.72,VALID,0,INVALID,109.674,VALID,0,VALID,25.3702,VALID,173,VALID,0,
2014-06-22, 00:57:04,VALID,1011.73,VALID,0,INVALID,109.75,VALID,0,VALID,25.3916,VALID,173,VALID,0,
2014-06-22, 00:58:04,VALID,1011.7,VALID,0,INVALID,109.78,VALID,0,VALID,25.3702,VALID,173,VALID,0,
2014-06-22, 00:59:04,VALID,1011.69,VALID,0,INVALID,109.773,VALID,0,VALID,25.3507,VALID,173,VALID,0,
2014-06-22, 01:00:04,VALID,1011.72,VALID,0,INVALID,109.803,VALID,0,VALID,25.3507,VALID,173,VALID,0.146875,
2014-06-22, 01:01:04,VALID,1011.74,VALID,0,INVALID,109.811,VALID,0.112112,VALID,25.3507,VALID,173,VALID,0,
2014-06-22, 01:02:04,VALID,1011.73,VALID,0,INVALID,109.857,VALID,0,VALID,25.3702,VALID,173,VALID,0,
2014-06-22, 01:03:04,VALID,1011.74,VALID,0,INVALID,109.849,VALID,0,VALID,25.3507,VALID,173,VALID,0,
2014-06-22, 01:04:04,VALID,1011.71,VALID,0,INVALID,109.841,VALID,0,VALID,25.3507,VALID,173,VALID,0,
2014-06-22, 01:05:04,VALID,1011.7,VALID,0,INVALID,109.925,VALID,0,VALID,25.3702,VALID,173,VALID,0,
2014-06-22, 01:06:04,VALID,1011.66,VALID,0,INVALID,109.933,VALID,0,VALID,25.3897,VALID,173,VALID,0,
2014-06-22, 01:07:04,VALID,1011.66,VALID,0,INVALID,109.948,VALID,0,VALID,25.4092,VALID,173,VALID,0,
2014-06-22, 01:08:04,VALID,1011.65,VALID,0,INVALID,109.971,VALID,0,VALID,25.4092,VALID,173,VALID,0,
2014-06-22, 01:09:04,VALID,1011.61,VALID,0,INVALID,110.024,VALID,0,VALID,25.4482,VALID,173,VALID,0.40625,
2014-06-22, 01:10:04,VALID,1011.55,VALID,0,INVALID,110.017,VALID,0,VALID,25.4871,VALID,173,VALID,0.388672,
2014-06-22, 01:11:04,VALID,1011.56,VALID,0,INVALID,110.078,VALID,0,VALID,25.5261,VALID,173,VALID,0.332031,
2014-06-22, 01:12:04,VALID,1011.53,VALID,0,INVALID,110.131,VALID,0,VALID,25.5456,VALID,173,VALID,0.486719,
2014-06-22, 01:13:04,VALID,1011.51,VALID,0,INVALID,110.124,VALID,0,VALID,25.5456,VALID,173,VALID,0.125781,
2014-06-22, 01:14:04,VALID,1011.5,VALID,0,INVALID,110.131,VALID,0,VALID,25.5651,VALID,173,VALID,0.218359,
2014-06-22, 01:15:04,VALID,1011.47,VALID,0,INVALID,110.146,VALID,0.112112,VALID,25.5846,VALID,173,VALID,0,
2014-06-22, 01:16:04,VALID,1011.46,VALID,0,INVALID,110.124,VALID,0,VALID,25.6041,VALID,173,VALID,0.287891,
2014-06-22, 01:17:04,VALID,1011.45,VALID,0,INVALID,110.124,VALID,0,VALID,25.5632,VALID,173,VALID,0,
2014-06-22, 01:18:04,VALID,1011.43,VALID,0,INVALID,110.07,VALID,0,VALID,25.5827,VALID,173,VALID,0.266016,
2014-06-22, 01:19:04,VALID,1011.4,VALID,0,INVALID,110.047,VALID,0,VALID,25.6041,VALID,173,VALID,0.161719,
2014-06-22, 01:20:04,VALID,1011.38,VALID,0,INVALID,109.994,VALID,0,VALID,25.6041,VALID,173,VALID,0.419922,
2014-06-22, 01:21:04,VALID,1011.34,VALID,0,INVALID,109.963,VALID,0,VALID,25.6041,VALID,173,VALID,0.542188,
2014-06-22, 01:22:04,VALID,1011.32,VALID,0,INVALID,109.857,VALID,0,VALID,25.6041,VALID,173,VALID,0.460938,
2014-06-22, 01:23:04,VALID,1011.31,VALID,0,INVALID,109.872,VALID,0,VALID,25.6041,VALID,173,VALID,0.262109,
2014-06-22, 01:24:04,VALID,1011.29,VALID,0,INVALID,109.803,VALID,0,VALID,25.6041,VALID,173,VALID,0.282031,
2014-06-22, 01:25:04,VALID,1011.27,VALID,0,INVALID,109.788,VALID,0.112112,VALID,25.5827,VALID,171,VALID,0.976172,
2014-06-22, 01:26:04,VALID,1011.26,VALID,0,INVALID,109.803,VALID,0,VALID,25.6041,VALID,169,VALID,0.688672,
2014-06-22, 01:27:04,VALID,1011.26,VALID,0,INVALID,109.765,VALID,0,VALID,25.6041,VALID,169,VALID,0.535937,
2014-06-22, 01:28:04,VALID,1011.25,VALID,0,INVALID,109.757,VALID,0,VALID,25.6041,VALID,169,VALID,0.428125,
2014-06-22, 01:29:04,VALID,1011.24,VALID,0,INVALID,109.78,VALID,0,VALID,25.6236,VALID,169,VALID,0.175391,
2014-06-22, 01:30:04,VALID,1011.23,VALID,0,INVALID,109.811,VALID,0,VALID,25.6236,VALID,169,VALID,0,
2014-06-22, 01:31:04,VALID,1011.19,VALID,0,INVALID,109.834,VALID,0,VALID,25.6236,VALID,169,VALID,0,
2014-06-22, 01:32:04,VALID,1011.17,VALID,0,INVALID,109.803,VALID,0,VALID,25.6041,VALID,169,VALID,0,
2014-06-22, 01:33:04,VALID,1011.15,VALID,0,INVALID,109.796,VALID,0,VALID,25.6041,VALID,169,VALID,0,
2014-06-22, 01:34:04,VALID,1011.12,VALID,0,INVALID,109.78,VALID,0,VALID,25.6061,VALID,169,VALID,0,
2014-06-22, 01:35:04,VALID,1011.14,VALID,0,INVALID,109.78,VALID,0,VALID,25.5846,VALID,169,VALID,0,
2014-06-22, 01:36:04,VALID,1011.14,VALID,0,INVALID,109.78,VALID,0,VALID,25.5651,VALID,169,VALID,0,
2014-06-22, 01:37:04,VALID,1011.13,VALID,0,INVALID,109.757,VALID,0,VALID,25.5456,VALID,169,VALID,0,
2014-06-22, 01:38:04,VALID,1011.13,VALID,0,INVALID,109.788,VALID,0,VALID,25.5456,VALID,169,VALID,0,
2014-06-22, 01:39:04,VALID,1011.1,VALID,0,INVALID,109.841,VALID,0,VALID,25.5456,VALID,169,VALID,0,
2014-06-22, 01:40:04,VALID,1011.11,VALID,0,INVALID,109.895,VALID,0,VALID,25.5456,VALID,169,VALID,0,
2014-06-22, 01:41:04,VALID,1011.09,VALID,0,INVALID,109.933,VALID,0.112112,VALID,25.5261,VALID,169,VALID,0,
2014-06-22, 01:42:04,VALID,1011.07,VALID,0,INVALID,109.864,VALID,0,VALID,25.5261,VALID,169,VALID,0,
2014-06-22, 01:43:04,VALID,1011.07,VALID,0,INVALID,109.933,VALID,0,VALID,25.5066,VALID,169,VALID,0,
2014-06-22, 01:44:04,VALID,1011.06,VALID,0,INVALID,109.918,VALID,0,VALID,25.5066,VALID,169,VALID,0,
2014-06-22, 01:45:04,VALID,1011.07,VALID,0,INVALID,109.933,VALID,0,VALID,25.4871,VALID,169,VALID,0,
2014-06-22, 01:46:04,VALID,1011.05,VALID,0,INVALID,109.963,VALID,0,VALID,25.4871,VALID,169,VALID,0,
2014-06-22, 01:47:04,VALID,1011.02,VALID,0,INVALID,110.001,VALID,0,VALID,25.4677,VALID,169,VALID,0,
2014-06-22, 01:48:04,VALID,1010.99,VALID,0,INVALID,110.055,VALID,0,VALID,25.4677,VALID,169,VALID,0,
2014-06-22, 01:49:04,VALID,1010.97,VALID,0,INVALID,110.085,VALID,0,VALID,25.4871,VALID,169,VALID,0,
2014-06-22, 01:50:04,VALID,1010.96,VALID,0,INVALID,110.131,VALID,0,VALID,25.4871,VALID,169,VALID,0,
2014-06-22, 01:51:04,VALID,1010.94,VALID,0,INVALID,110.146,VALID,0.112112,VALID,25.4871,VALID,169,VALID,0,
2014-06-22, 01:52:04,VALID,1010.97,VALID,0,INVALID,110.162,VALID,0,VALID,25.4871,VALID,169,VALID,0,
2014-06-22, 01:53:04,VALID,1010.94,VALID,0,INVALID,110.162,VALID,0,VALID,25.5066,VALID,169,VALID,0,
2014-06-22, 01:54:04,VALID,1010.96,VALID,0,INVALID,110.215,VALID,0.112112,VALID,25.4852,VALID,169,VALID,0,
2014-06-22, 01:55:04,VALID,1010.96,VALID,0,INVALID,110.207,VALID,0,VALID,25.5066,VALID,169,VALID,0,
2014-06-22, 01:56:04,VALID,1010.93,VALID,0,INVALID,110.246,VALID,0,VALID,25.5261,VALID,169,VALID,0,
2014-06-22, 01:57:04,VALID,1010.9,VALID,0,INVALID,110.23,VALID,0,VALID,25.5261,VALID,169,VALID,0,
2014-06-22, 01:58:04,VALID,1010.91,VALID,0,INVALID,110.246,VALID,0,VALID,25.5066,VALID,169,VALID,0,
2014-06-22, 01:59:04,VALID,1010.89,VALID,0,INVALID,110.207,VALID,0,VALID,25.5261,VALID,169,VALID,0,
2014-06-22, 02:00:04,VALID,1010.92,VALID,0,INVALID,110.215,VALID,0,VALID,25.5281,VALID,169,VALID,0,
2014-06-22, 02:01:04,VALID,1010.93,VALID,0,INVALID,110.192,VALID,0,VALID,25.5066,VALID,169,VALID,0.15625,
2014-06-22, 02:02:04,VALID,1010.96,VALID,0,INVALID,110.238,VALID,0,VALID,25.5261,VALID,169,VALID,0.566797,
2014-06-22, 02:03:04,VALID,1010.96,VALID,0,INVALID,110.276,VALID,0,VALID,25.5456,VALID,169,VALID,0.55,
2014-06-22, 02:04:04,VALID,1010.93,VALID,0,INVALID,110.291,VALID,0,VALID,25.5651,VALID,169,VALID,0.635547,
2014-06-22, 02:05:04,VALID,1010.93,VALID,0,INVALID,110.276,VALID,0,VALID,25.5846,VALID,169,VALID,0.554688,
2014-06-22, 02:06:04,VALID,1010.92,VALID,0,INVALID,110.276,VALID,0,VALID,25.6041,VALID,169,VALID,0.484766,
2014-06-22, 02:07:04,VALID,1010.93,VALID,0,INVALID,110.276,VALID,0,VALID,25.6236,VALID,169,VALID,0.426953,
2014-06-22, 02:08:04,VALID,1010.89,VALID,0,INVALID,110.261,VALID,0.112112,VALID,25.6236,VALID,169,VALID,0.391016,
2014-06-22, 02:09:04,VALID,1010.87,VALID,0,INVALID,110.192,VALID,0.112112,VALID,25.6431,VALID,169,VALID,0.353906,
2014-06-22, 02:10:04,VALID,1010.85,VALID,0,INVALID,110.162,VALID,0,VALID,25.6236,VALID,169,VALID,0.579297,
2014-06-22, 02:11:04,VALID,1010.89,VALID,0,INVALID,110.139,VALID,0,VALID,25.6217,VALID,169,VALID,0.404687,
2014-06-22, 02:12:04,VALID,1010.87,VALID,0,INVALID,110.078,VALID,0,VALID,25.6431,VALID,169,VALID,0.0367187,
2014-06-22, 02:13:04,VALID,1010.87,VALID,0,INVALID,110.101,VALID,0,VALID,25.6431,VALID,169,VALID,0,
2014-06-22, 02:14:04,VALID,1010.82,VALID,0,INVALID,110.116,VALID,0,VALID,25.6626,VALID,169,VALID,0,
2014-06-22, 02:15:04,VALID,1010.82,VALID,0,INVALID,110.093,VALID,0.112112,VALID,25.6626,VALID,169,VALID,0,
2014-06-22, 02:16:04,VALID,1010.8,VALID,0,INVALID,110.116,VALID,0,VALID,25.6431,VALID,169,VALID,0,
2014-06-22, 02:17:04,VALID,1010.81,VALID,0,INVALID,110.101,VALID,0,VALID,25.6821,VALID,169,VALID,0,
2014-06-22, 02:18:04,VALID,1010.8,VALID,0,INVALID,110.154,VALID,0.112112,VALID,25.6821,VALID,169,VALID,0,
2014-06-22, 02:19:04,VALID,1010.77,VALID,0,INVALID,110.124,VALID,0,VALID,25.6821,VALID,169,VALID,0,
2014-06-22, 02:20:04,VALID,1010.74,VALID,0,INVALID,110.108,VALID,0,VALID,25.6821,VALID,169,VALID,0,
2014-06-22, 02:21:04,VALID,1010.7,VALID,0,INVALID,110.131,VALID,0,VALID,25.6821,VALID,169,VALID,0,
2014-06-22, 02:22:04,VALID,1010.67,VALID,0,INVALID,110.093,VALID,0,VALID,25.6821,VALID,169,VALID,0,
2014-06-22, 02:23:04,VALID,1010.66,VALID,0,INVALID,110.101,VALID,0,VALID,25.6821,VALID,169,VALID,0,
2014-06-22, 02:24:04,VALID,1010.66,VALID,0,INVALID,110.101,VALID,0,VALID,25.6626,VALID,169,VALID,0,
2014-06-22, 02:25:04,VALID,1010.67,VALID,0,INVALID,110.093,VALID,0,VALID,25.6626,VALID,169,VALID,0,
2014-06-22, 02:26:04,VALID,1010.62,VALID,0,INVALID,110.078,VALID,0,VALID,25.6451,VALID,169,VALID,0,
2014-06-22, 02:27:04,VALID,1010.61,VALID,0,INVALID,110.093,VALID,0,VALID,25.6236,VALID,169,VALID,0,
2014-06-22, 02:28:04,VALID,1010.6,VALID,0,INVALID,110.154,VALID,0,VALID,25.6236,VALID,169,VALID,0,
2014-06-22, 02:29:04,VALID,1010.58,VALID,0,INVALID,110.207,VALID,0,VALID,25.6431,VALID,169,VALID,0,
2014-06-22, 02:30:04,VALID,1010.55,VALID,0,INVALID,110.268,VALID,0,VALID,25.6431,VALID,169,VALID,0,
2014-06-22, 02:31:04,VALID,1010.53,VALID,0,INVALID,110.261,VALID,0,VALID,25.6431,VALID,169,VALID,0,
2014-06-22, 02:32:04,VALID,1010.52,VALID,0,INVALID,110.238,VALID,0,VALID,25.6236,VALID,169,VALID,0,
2014-06-22, 02:33:04,VALID,1010.54,VALID,0,INVALID,110.23,VALID,0,VALID,25.6256,VALID,169,VALID,0,
2014-06-22, 02:34:04,VALID,1010.52,VALID,0,INVALID,110.207,VALID,0,VALID,25.6041,VALID,169,VALID,0.0648438,
2014-06-22, 02:35:04,VALID,1010.51,VALID,0,INVALID,110.276,VALID,0,VALID,25.6041,VALID,169,VALID,0.0550781,
2014-06-22, 02:36:04,VALID,1010.51,VALID,0,INVALID,110.299,VALID,0,VALID,25.6041,VALID,169,VALID,0,
2014-06-22, 02:37:04,VALID,1010.5,VALID,0,INVALID,110.314,VALID,0,VALID,25.6236,VALID,169,VALID,0,
2014-06-22, 02:38:04,VALID,1010.5,VALID,0,INVALID,110.307,VALID,0,VALID,25.5846,VALID,169,VALID,0,
2014-06-22, 02:39:04,VALID,1010.48,VALID,0,INVALID,110.299,VALID,0,VALID,25.6061,VALID,169,VALID,0,
2014-06-22, 02:40:04,VALID,1010.48,VALID,0,INVALID,110.329,VALID,0,VALID,25.5846,VALID,169,VALID,0,
2014-06-22, 02:41:04,VALID,1010.47,VALID,0,INVALID,110.322,VALID,0,VALID,25.6061,VALID,169,VALID,0,
2014-06-22, 02:42:04,VALID,1010.44,VALID,0,INVALID,110.352,VALID,0,VALID,25.5846,VALID,169,VALID,0,
2014-06-22, 02:43:04,VALID,1010.47,VALID,0,INVALID,110.345,VALID,0,VALID,25.6041,VALID,169,VALID,0,
2014-06-22, 02:44:04,VALID,1010.47,VALID,0,INVALID,110.368,VALID,0,VALID,25.6041,VALID,169,VALID,0,
2014-06-22, 02:45:04,VALID,1010.49,VALID,0,INVALID,110.383,VALID,0,VALID,25.5846,VALID,169,VALID,0,
2014-06-22, 02:46:04,VALID,1010.47,VALID,0,INVALID,110.406,VALID,0,VALID,25.5846,VALID,169,VALID,0.297656,
2014-06-22, 02:47:04,VALID,1010.46,VALID,0,INVALID,110.406,VALID,0,VALID,25.5846,VALID,169,VALID,0.115234,
2014-06-22, 02:48:04,VALID,1010.47,VALID,0,INVALID,110.421,VALID,0,VALID,25.5651,VALID,169,VALID,0.346094,
2014-06-22, 02:49:04,VALID,1010.44,VALID,0,INVALID,110.398,VALID,0,VALID,25.5651,VALID,169,VALID,0.189844,
2014-06-22, 02:50:04,VALID,1010.44,VALID,0,INVALID,110.39,VALID,0,VALID,25.5456,VALID,169,VALID,0.267969,
2014-06-22, 02:51:04,VALID,1010.48,VALID,0,INVALID,110.421,VALID,0,VALID,25.5456,VALID,169,VALID,0.236719,
2014-06-22, 02:52:04,VALID,1010.49,VALID,0,INVALID,110.421,VALID,0.112112,VALID,25.5476,VALID,169,VALID,0.303906,
2014-06-22, 02:53:04,VALID,1010.5,VALID,0,INVALID,110.451,VALID,0,VALID,25.5066,VALID,169,VALID,0.319141,
2014-06-22, 02:54:04,VALID,1010.52,VALID,0,INVALID,110.474,VALID,0,VALID,25.4871,VALID,169,VALID,0.263281,
2014-06-22, 02:55:04,VALID,1010.54,VALID,0,INVALID,110.474,VALID,0,VALID,25.4871,VALID,169,VALID,0.417578,
2014-06-22, 02:56:04,VALID,1010.57,VALID,0,INVALID,110.467,VALID,0.112112,VALID,25.4677,VALID,169,VALID,0.207422,
2014-06-22, 02:57:04,VALID,1010.63,VALID,0,INVALID,110.528,VALID,0,VALID,25.4677,VALID,169,VALID,0.132031,
2014-06-22, 02:58:04,VALID,1010.62,VALID,0,INVALID,110.52,VALID,0,VALID,25.4482,VALID,169,VALID,0.366406,
2014-06-22, 02:59:04,VALID,1010.65,VALID,0,INVALID,110.543,VALID,0,VALID,25.4287,VALID,169,VALID,0.315625,
2014-06-22, 03:00:04,VALID,1010.64,VALID,0,INVALID,110.566,VALID,0,VALID,25.4287,VALID,169,VALID,0.489062,
2014-06-22, 03:01:04,VALID,1010.63,VALID,0,INVALID,110.558,VALID,0,VALID,25.4287,VALID,169,VALID,0.330859,
2014-06-22, 03:02:04,VALID,1010.65,VALID,0,INVALID,110.581,VALID,0,VALID,25.4092,VALID,169,VALID,0.31875,
2014-06-22, 03:03:04,VALID,1010.61,VALID,0,INVALID,110.612,VALID,0,VALID,25.3897,VALID,169,VALID,0.458594,
2014-06-22, 03:04:04,VALID,1010.64,VALID,0,INVALID,110.604,VALID,0,VALID,25.3897,VALID,169,VALID,0.255469,
2014-06-22, 03:05:04,VALID,1010.65,VALID,0,INVALID,110.589,VALID,0,VALID,25.3702,VALID,169,VALID,0.450391,
2014-06-22, 03:06:04,VALID,1010.69,VALID,0,INVALID,110.619,VALID,0,VALID,25.3702,VALID,169,VALID,0.205469,
2014-06-22, 03:07:04,VALID,1010.69,VALID,0,INVALID,110.634,VALID,0,VALID,25.3702,VALID,169,VALID,0.00117188,
2014-06-22, 03:08:04,VALID,1010.71,VALID,0,INVALID,110.619,VALID,0,VALID,25.3702,VALID,169,VALID,0.387109,
2014-06-22, 03:09:04,VALID,1010.74,VALID,0,INVALID,110.642,VALID,0,VALID,25.3702,VALID,169,VALID,0.427344,
2014-06-22, 03:10:04,VALID,1010.74,VALID,0,INVALID,110.634,VALID,0,VALID,25.3702,VALID,169,VALID,0.284766,
2014-06-22, 03:11:04,VALID,1010.77,VALID,0,INVALID,110.68,VALID,0,VALID,25.3507,VALID,169,VALID,0.236328,
2014-06-22, 03:12:04,VALID,1010.76,VALID,0,INVALID,110.657,VALID,0,VALID,25.3702,VALID,169,VALID,0.226172,
2014-06-22, 03:13:04,VALID,1010.77,VALID,0,INVALID,110.657,VALID,0,VALID,25.3916,VALID,169,VALID,0.350781,
2014-06-22, 03:14:04,VALID,1010.78,VALID,0,INVALID,110.634,VALID,0,VALID,25.3507,VALID,169,VALID,0.411328,
2014-06-22, 03:15:04,VALID,1010.8,VALID,0,INVALID,110.657,VALID,0,VALID,25.3507,VALID,169,VALID,0.0789063,
2014-06-22, 03:16:04,VALID,1010.82,VALID,0,INVALID,110.673,VALID,0,VALID,25.3507,VALID,169,VALID,0,
2014-06-22, 03:17:04,VALID,1010.85,VALID,0,INVALID,110.665,VALID,0,VALID,25.3507,VALID,169,VALID,0,
2014-06-22, 03:18:04,VALID,1010.87,VALID,0,INVALID,110.673,VALID,0,VALID,25.3507,VALID,169,VALID,0.184766,
2014-06-22, 03:19:04,VALID,1010.87,VALID,0,INVALID,110.711,VALID,0,VALID,25.3526,VALID,169,VALID,0.476563,
2014-06-22, 03:20:04,VALID,1010.91,VALID,0,INVALID,110.673,VALID,0,VALID,25.3117,VALID,169,VALID,0.674219,
2014-06-22, 03:21:04,VALID,1010.96,VALID,0,INVALID,110.665,VALID,0,VALID,25.3331,VALID,169,VALID,0.312109,
2014-06-22, 03:22:04,VALID,1010.96,VALID,0,INVALID,110.688,VALID,0,VALID,25.3117,VALID,169,VALID,0.460938,
2014-06-22, 03:23:04,VALID,1010.97,VALID,0,INVALID,110.695,VALID,0.112112,VALID,25.3117,VALID,169,VALID,0.312109,
2014-06-22, 03:24:04,VALID,1010.99,VALID,0,INVALID,110.65,VALID,0,VALID,25.3117,VALID,169,VALID,0.185547,
2014-06-22, 03:25:04,VALID,1010.98,VALID,0,INVALID,110.695,VALID,0,VALID,25.3117,VALID,169,VALID,0.03125,
2014-06-22, 03:26:04,VALID,1011,VALID,0,INVALID,110.673,VALID,0,VALID,25.3117,VALID,169,VALID,0.235547,
2014-06-22, 03:27:04,VALID,1010.98,VALID,0,INVALID,110.703,VALID,0,VALID,25.3331,VALID,169,VALID,0.409766,
2014-06-22, 03:28:04,VALID,1010.98,VALID,0,INVALID,110.695,VALID,0,VALID,25.3117,VALID,169,VALID,0.290234,
2014-06-22, 03:29:04,VALID,1010.96,VALID,0,INVALID,110.711,VALID,0,VALID,25.2922,VALID,169,VALID,0.0347656,
2014-06-22, 03:30:04,VALID,1010.99,VALID,0,INVALID,110.726,VALID,0,VALID,25.2922,VALID,169,VALID,0.175,
2014-06-22, 03:31:04,VALID,1010.99,VALID,0,INVALID,110.68,VALID,0,VALID,25.2727,VALID,169,VALID,0,
2014-06-22, 03:32:04,VALID,1010.97,VALID,0,INVALID,110.718,VALID,0,VALID,25.2922,VALID,169,VALID,0,
2014-06-22, 03:33:04,VALID,1010.98,VALID,0,INVALID,110.711,VALID,0,VALID,25.2727,VALID,169,VALID,0.0285156,
2014-06-22, 03:34:04,VALID,1010.94,VALID,0,INVALID,110.726,VALID,0,VALID,25.2727,VALID,169,VALID,0.223828,
2014-06-22, 03:35:04,VALID,1010.95,VALID,0,INVALID,110.726,VALID,0,VALID,25.2922,VALID,169,VALID,0.00546875,
2014-06-22, 03:36:04,VALID,1010.98,VALID,0,INVALID,110.726,VALID,0,VALID,25.2941,VALID,169,VALID,0,
2014-06-22, 03:37:04,VALID,1010.97,VALID,0,INVALID,110.726,VALID,0,VALID,25.2727,VALID,169,VALID,0,
2014-06-22, 03:38:04,VALID,1010.99,VALID,0,INVALID,110.726,VALID,0,VALID,25.2922,VALID,169,VALID,0,
2014-06-22, 03:39:04,VALID,1010.96,VALID,0,INVALID,110.734,VALID,0,VALID,25.2941,VALID,169,VALID,0,
2014-06-22, 03:40:04,VALID,1010.95,VALID,0,INVALID,110.741,VALID,0,VALID,25.2922,VALID,169,VALID,0,
2014-06-22, 03:41:04,VALID,1010.98,VALID,0,INVALID,110.718,VALID,0,VALID,25.2922,VALID,169,VALID,0.0117188,
2014-06-22, 03:42:04,VALID,1011.01,VALID,0,INVALID,110.756,VALID,0,VALID,25.2727,VALID,169,VALID,0.4125,
2014-06-22, 03:43:04,VALID,1011.03,VALID,0,INVALID,110.734,VALID,0,VALID,25.2727,VALID,169,VALID,0.348047,
2014-06-22, 03:44:04,VALID,1011.03,VALID,0,INVALID,110.749,VALID,0,VALID,25.2727,VALID,169,VALID,0.413672,
2014-06-22, 03:45:04,VALID,1011.04,VALID,0,INVALID,110.749,VALID,0,VALID,25.2532,VALID,169,VALID,0.719531,
2014-06-22, 03:46:04,VALID,1011.08,VALID,0,INVALID,110.741,VALID,0,VALID,25.2532,VALID,169,VALID,0.384375,
2014-06-22, 03:47:04,VALID,1011.07,VALID,0,INVALID,110.734,VALID,0,VALID,25.2727,VALID,169,VALID,0.654297,
2014-06-22, 03:48:04,VALID,1011.12,VALID,0,INVALID,110.741,VALID,0,VALID,25.2532,VALID,169,VALID,0.517187,